Location: Unspecified
(0.0000°N, 0.0000°E)
Time: 19:19:54
(UTC+00:00)

Vanguard 2 Rocket - Pass Details

Date: 08 December 2017
Orbit: 556 x 3326 km, 32.9° (Epoch: 19 January)

Event Time Altitude Azimuth Distance (km) Brightness Sun altitude
Rises 14:20:52 0° 192° (SSW) 3,197 10.2 47.3°
Reaches altitude 10° 14:25:24 10° 154° (SSE) 2,719 9.5 46.3°
Maximum altitude 14:27:06 11° 139° (SE) 2,831 9.5 46.0°
Drops below altitude 10° 14:28:59 10° 124° (ESE) 3,119 9.6 45.6°
Sets 14:35:53 0° 92° (E) 4,897 10.3 44.1°
